Regional Weather Roundup
Issued by NWS

Home | Current Version | Previous Version | Text Only | Print | Product List | Glossary Off
Versions: 1 2 3 4 5 6 7 8 9 10 11 12 13 14 15 16 17 18 19 20 21 22 23 24 25 26 27 28 29 30 31 32 33 34 35 36 37 38 39 40 41 42 43 44 45 46 47 48 49 50

000
ASUS43 KIND 010609
RWRIN

WEATHER ROUNDUP FOR INDIANA
NATIONAL WEATHER SERVICE INDIANAPOLIS IN
200 AM EDT SAT AUG 01 2015

NOTE: "FAIR" INDICATES FEW OR NO CLOUDS BELOW 12,000 FEET WITH NO
SIGNIFICANT WEATHER AND/OR OBSTRUCTIONS TO VISIBILITY.

* - STATION DOES NOT REPORT WEATHER SUCH AS PRECIPITATION OR FOG.

+ - STATION NOT QUALITY CONTROLLED BY THE NATIONAL WEATHER SERVICE.
    USE DATA WITH CAUTION...ESPECIALLY DEWPOINT AND RELATIVE
    HUMIDITY OBSERVATIONS.

INZ001>003-010>013-019-020-010700-
NORTHWEST INDIANA

CITY           SKY/WX    TMP DP  RH WIND       PRES   REMARKS
GARY /AIRPORT/ CLEAR     66  56  68 W3        29.99R
KNOX *+        CLEAR     59  59 100 SW3       29.98S
LA PORTE +     CLEAR     60  60 100 W3        29.99S
6HR MIN TEMP:  60; 6HR MAX TEMP:  79;

MICHIGAN CITY+ CLEAR     64  55  72 CALM      29.98S
MONTICELLO +   CLEAR     64  58  81 W7        30.00R
6HR MIN TEMP:  64; 6HR MAX TEMP:  82;

RENSSELAER +   CLEAR     64  57  77 W5        30.00S
VALPARAISO     CLEAR     64  57  78 W5        29.99S
6HR MIN TEMP:  64; 6HR MAX TEMP:  80;


$$

LMZ046-743>745-010700-
SOUTHERN LAKE MICHIGAN

STATION/POSITION TIME  TEMP    WIND        PRES    WAVE
                       AIR SEA DIR/SP/G            HT
                 (UTC) (F)     (DEG/KT/KT) (MB)    (FT)
BURNS HARBOR     0500   75     300/  7/  9 1015.2S
MICHIGAN CITY    0500   75     270/ 12/ 13   N/A
5NW MICH CITY    0600   75 74  310/ 12/ 16   N/A     2

$$

INZ004-005-014>016-021>024-010700-
NORTH CENTRAL INDIANA

CITY           SKY/WX    TMP DP  RH WIND       PRES   REMARKS
GOSHEN         CLEAR     60  54  80 CALM      29.97R
6HR MIN TEMP:  60; 6HR MAX TEMP:  78;

LOGANSPORT +   CLEAR     59  52  77 SW3       30.01R
PERU/GRISSOM   CLEAR     59  56  89 SW7       29.99R
6HR MIN TEMP:  59; 6HR MAX TEMP:  81;

ROCHESTER +    CLEAR     64  59  82 W5        30.00R
SOUTH BEND     CLEAR     62  57  83 SW3       29.98R
6HR MIN TEMP:  62; 6HR MAX TEMP:  78;

WARSAW +       CLEAR     61  55  82 CALM      29.99R

$$

INZ006>009-017-018-025>027-010700-
NORTHEAST INDIANA

CITY           SKY/WX    TMP DP  RH WIND       PRES   REMARKS
ANGOLA *+      CLEAR     59  54  82 CALM      29.97R
AUBURN +       CLEAR     64  52  63 W3        29.98R
FORT WAYNE     CLEAR     62  57  83 W6        29.98S
6HR MIN TEMP:  61; 6HR MAX TEMP:  81;

HUNTINGTON +   CLEAR     64  57  80 W5        29.98S
6HR MIN TEMP:  61; 6HR MAX TEMP:  80;


$$

INZ028-029-035-036-043>045-051>053-010700-
WEST CENTRAL INDIANA

CITY           SKY/WX    TMP DP  RH WIND       PRES   REMARKS
CRAWFORDSVL +  CLEAR     61  61  99 W3          N/A
6HR MIN TEMP:  61; 6HR MAX TEMP:  77;

GREENCASTLE +  CLEAR     70  54  56 CALM      30.03S
LAFAYETTE      CLEAR     61  59  93 W6        30.00S
6HR MIN TEMP:  61; 6HR MAX TEMP:  80;

TERRE HAUTE    PTCLDY    65  61  87 SW5       30.02S
6HR MIN TEMP:  63; 6HR MAX TEMP:  84;


$$

INZ030>032-037>040-046>048-054>057-064-065-010700-
CENTRAL INDIANA

CITY           SKY/WX    TMP DP  RH WIND       PRES   REMARKS
FISHERS *+     CLEAR     66  61  82 CALM      30.01S
FRANKFORT +    CLEAR    N/A N/A N/A CALM      30.03S
GREENWOOD *+   CLEAR     66  57  72 W3        30.02R
INDIANAPOLIS   CLEAR     71  59  65 W9        30.00R
6HR MIN TEMP:  70; 6HR MAX TEMP:  83;

-EAGLE CREEK   CLEAR     70  61  73 W7        30.01R
6HR MIN TEMP:  70; 6HR MAX TEMP:  82;

KOKOMO *+      CLEAR     63  55  77 W5        30.01R
6HR MIN TEMP:  63; 6HR MAX TEMP:  82;

MARION +       CLEAR     59  57  92 CALM      30.00S
MT COMFORT *+  CLEAR     63 N/A N/A CALM      30.02R
SHELBYVILLE    CLEAR     68  61  78 SW5       30.00R
6HR MIN TEMP:  68; 6HR MAX TEMP:  83;

ZIONSVILLE +   CLEAR     65  59  81 CALM      30.02S
6HR MIN TEMP:  65; 6HR MAX TEMP:  80;


$$

INZ033-034-041-042-049-050-058-059-010700-
EAST CENTRAL INDIANA

CITY           SKY/WX    TMP DP  RH WIND       PRES   REMARKS
MUNCIE         CLEAR     64  58  80 W3        30.00R
6HR MIN TEMP:  63; 6HR MAX TEMP:  78;


$$

INZ060-061-067>069-081>083-085>088-010700-
SOUTHWEST INDIANA

CITY           SKY/WX    TMP DP  RH WIND       PRES   REMARKS
EVANSVILLE     PTCLDY    76  70  82 W5        30.04S
6HR MIN TEMP:  74; 6HR MAX TEMP:  87;

HUNTINGBURG *+ PTCLDY    70  66  88 W3        30.04S
6HR MIN TEMP:  70; 6HR MAX TEMP:  84;

WASHINGTON +   CLEAR     72  66  80 W6        30.02S
6HR MIN TEMP:  69; 6HR MAX TEMP:  83;


$$

INZ062-063-066-070>080-084-089>092-010700-
SOUTH CENTRAL AND SOUTHEAST INDIANA

CITY           SKY/WX    TMP DP  RH WIND       PRES   REMARKS
BLOOMINGTON    CLEAR     63  60  90 CALM      30.03R
6HR MIN TEMP:  63; 6HR MAX TEMP:  82;

MADISON *+     CLEAR     68  61  77 CALM      30.04S
NORTH VERNON + CLEAR     68  64  88 CALM      30.02R
SEYMOUR +      CLEAR     66  59  77 W6        30.01S

$$




USA.gov is the U.S. government's official web portal to all federal, state and local government web resources and services.